Regional Weather Roundup
Issued by NWS Cleveland, OH

Home | Current Version | Previous Version | Text Only | Print | Product List | Glossary Off
Versions: 1 2 3 4 5 6 7 8 9 10 11 12 13 14 15 16 17 18 19 20 21 22 23 24 25 26 27 28 29 30 31 32 33 34 35 36 37 38 39 40 41 42 43 44 45 46 47 48 49 50

000
ASUS41 KCLE 010502
RWRCLE
OHIO REGIONAL WEATHER ROUNDUP
NATIONAL WEATHER SERVICE CLEVELAND, OH
100 AM EDT TUE SEP 01 2015

NOTE: "FAIR" INDICATES FEW OR NO CLOUDS BELOW 12,000 FEET WITH NO
SIGNIFICANT WEATHER AND/OR OBSTRUCTIONS TO VISIBILITY.

OHZ001>008-015>018-024>027-034-035-043-044-010600-
   NORTHWEST OHIO

CITY           SKY/WX    TMP DP  RH WIND       PRES   REMARKS
DEFIANCE       CLEAR     71  68  90 CALM      30.09R FOG
FINDLAY        CLEAR     71  68  90 S3        30.09R
TOLEDO EXPRESS CLEAR     69  67  93 CALM      30.08R FOG
TOLEDO EXEC    CLEAR     72  67  84 CALM      30.09R
LIMA           CLEAR     72  68  87 CALM      30.11R
$$

OHZ009>014-019>023-028>033-038-089-010600-
   NORTHEAST OHIO

CITY           SKY/WX    TMP DP  RH WIND       PRES   REMARKS
CLE-HOPKINS    CLEAR     72  66  81 CALM      30.11R
CLE-LAKEFRONT  CLEAR     75  66  73 S7        30.07S
CUY CO. ARPT   NOT AVBL
LORAIN-ELYRIA  CLEAR     69  67  93 CALM      30.10R FOG
ASHTABULA      CLEAR     63  63 100 CALM      30.11R FOG
AKRON-CANTON   CLEAR     71  65  81 CALM      30.12R
WOOSTER        PTCLDY    66  64  93 CALM      30.12S FOG
MANSFIELD      CLEAR     71  67  87 SW3       30.13R
YOUNGSTOWN     PTCLDY    66  64  93 CALM      30.11S
$$

OHZ042-051>053-060>062-070>072-077>081-010600-
  SOUTHWEST OHIO

CITY           SKY/WX    TMP DP  RH WIND       PRES   REMARKS
CINC-COVINGTON PTCLDY    71  66  84 CALM      30.12R
CINC-LUNKEN    FAIR      68  68 100 CALM      30.11S FOG
HAMILTON       CLEAR     69  67  93 CALM      30.12R FOG
DAYTON         PTCLDY    70  68  93 SW6       30.12S
WRIGHT-PAT AFB CLEAR     71  68  92 SE2       30.11S
DAYTON GENERAL CLEAR     72  66  81 CALM      30.11S
WILMINGTON     CLEAR     65  63  93 CALM      30.12S FOG
$$

OHZ036-037-039>041-045>050-054>059-063>069-073>076-082>088-010600-
  CENTRAL AND SOUTHEAST OHIO

CITY           SKY/WX    TMP DP  RH WIND       PRES   REMARKS
COLUMBUS       CLEAR     71  68  90 CALM      30.11R
OSU AIRPORT    CLEAR     72  68  87 CALM      30.11S
BOLTON FIELD   NOT AVBL
RICKENBACK AFB CLEAR     69  67  93 CALM      30.10S
NEWARK         CLEAR     67  65  93 CALM      30.11S FOG
MARION         CLEAR     69  67  93 CALM      30.12R FOG
LANCASTER      CLEAR     66  64  93 CALM      30.11S
ZANESVILLE     CLEAR     68  64  87 CALM      30.11S FOG
NEW PHILLY     CLEAR     68  67  96 SE3       30.12R FOG
$$



USA.gov is the U.S. government's official web portal to all federal, state and local government web resources and services.